When you browse on this site, cookies collect data to enhance your experience and personalize the content and advertising you see.
Visit our Privacy Policy to learn more. By continuing to use the site, you agree to this use of cookies and data.
  • In Czech Republic
  • List of Countries
  • For 7 days
  • Water Temperature
  • Weather Map
  • Weather Widgets
  • user-avatar
    Login

    Hourly Weather Mayrhofen

    Today, 18 January, Saturday

    Time Temperature Precipitation Wind Pressure Humidity
    00:00 -4°C° 0 mm 1 mps 616 mmHg 77%
    01:00 -4°C° 0 mm 1 mps 616 mmHg 76%
    02:00 -4°C° 0.3 mm 1 mps 616 mmHg 81%
    03:00 -4°C° 0.3 mm 1 mps 616 mmHg 85%
    04:00 -4°C° 0.3 mm 1 mps 616 mmHg 89%
    05:00 -4°C° 0.9 mm 1 mps 617 mmHg 91%
    06:00 -3°C° 0.9 mm 1 mps 617 mmHg 93%
    07:00 -5°C° 0.9 mm 2 mps 618 mmHg 95%
    08:00 -5°C° 0.5 mm 2 mps 618 mmHg 94%
    09:00 -4°C° 0.5 mm 2 mps 618 mmHg 93%
    10:00 -4°C° 0.5 mm 2 mps 619 mmHg 91%
    11:00 -4°C° 0.3 mm 2 mps 618 mmHg 90%
    12:00 -4°C° 0.3 mm 2 mps 618 mmHg 89%
    13:00 -4°C° 0.3 mm 2 mps 618 mmHg 88%
    14:00 -4°C° 0.4 mm 2 mps 618 mmHg 89%
    15:00 -5°C° 0.4 mm 2 mps 618 mmHg 90%
    16:00 -5°C° 0.4 mm 2 mps 618 mmHg 91%
    17:00 -6°C° 0.2 mm 2 mps 618 mmHg 92%
    18:00 -7°C° 0.2 mm 2 mps 618 mmHg 93%
    19:00 -7°C° 0.2 mm 1 mps 618 mmHg 93%
    20:00 -7°C° 0.1 mm 1 mps 618 mmHg 93%
    21:00 -7°C° 0.1 mm 1 mps 618 mmHg 93%
    22:00 -8°C° 0.1 mm 1 mps 618 mmHg 92%
    23:00 -8°C° 0.1 mm 1 mps 618 mmHg 92%

    Tomorrow, 19 January, Sunday

    Time Temperature Precipitation Wind Pressure Humidity
    00:00 -9°C° 0.1 mm 1 mps 618 mmHg 92%
    01:00 -9°C° 0.1 mm 1 mps 618 mmHg 92%
    02:00 -9°C° 0.1 mm 1 mps 618 mmHg 92%
    03:00 -10°C° 0.1 mm 1 mps 618 mmHg 92%
    04:00 -10°C° 0.1 mm 1 mps 618 mmHg 92%
    05:00 -10°C° 0.1 mm 1 mps 618 mmHg 92%
    06:00 -13°C° 0.1 mm 2 mps 618 mmHg 92%
    07:00 -13°C° 0.1 mm 2 mps 618 mmHg 92%
    08:00 -12°C° 0.1 mm 2 mps 619 mmHg 90%
    09:00 -10°C° 0.1 mm 2 mps 619 mmHg 89%
    10:00 -9°C° 0.1 mm 2 mps 620 mmHg 88%
    11:00 -8°C° 0.1 mm 2 mps 620 mmHg 85%
    12:00 -8°C° 0.1 mm 2 mps 621 mmHg 81%
    13:00 -7°C° 0.1 mm 2 mps 621 mmHg 78%
    14:00 -8°C° 0.1 mm 2 mps 621 mmHg 81%
    15:00 -8°C° 0.1 mm 2 mps 621 mmHg 83%
    16:00 -9°C° 0.1 mm 2 mps 621 mmHg 86%
    17:00 -9°C° 0.1 mm 2 mps 622 mmHg 88%
    18:00 -10°C° 0.1 mm 2 mps 622 mmHg 90%
    19:00 -12°C° 0.1 mm 2 mps 622 mmHg 93%
    20:00 -10°C° 0 mm 1 mps 622 mmHg 93%
    21:00 -11°C° 0 mm 1 mps 623 mmHg 93%
    22:00 -11°C° 0 mm 1 mps 623 mmHg 93%
    23:00 -11°C° 0 mm 1 mps 623 mmHg 93%

    Day after tomorrow, 20 January, Monday

    Time Temperature Precipitation Wind Pressure Humidity
    00:00 -11°C° 0 mm 1 mps 623 mmHg 92%
    01:00 -12°C° 0 mm 1 mps 624 mmHg 92%
    02:00 -12°C° 0 mm 1 mps 623 mmHg 91%
    03:00 -12°C° 0 mm 1 mps 623 mmHg 90%
    04:00 -13°C° 0 mm 1 mps 623 mmHg 89%
    05:00 -12°C° 0 mm 1 mps 624 mmHg 83%
    06:00 -12°C° 0 mm 1 mps 624 mmHg 78%
    07:00 -12°C° 0 mm 1 mps 624 mmHg 72%
    08:00 -11°C° 0 mm 1 mps 625 mmHg 68%
    09:00 -9°C° 0 mm 1 mps 626 mmHg 65%
    10:00 -8°C° 0 mm 1 mps 627 mmHg 61%
    11:00 -6°C° 0 mm 1 mps 627 mmHg 58%
    12:00 -4°C° 0 mm 1 mps 628 mmHg 55%
    13:00 -4°C° 0 mm 2 mps 628 mmHg 52%
    14:00 -5°C° 0 mm 2 mps 628 mmHg 54%
    15:00 -3°C° 0 mm 1 mps 628 mmHg 56%
    16:00 -4°C° 0 mm 1 mps 628 mmHg 58%
    17:00 -6°C° 0 mm 2 mps 628 mmHg 52%
    18:00 -7°C° 0 mm 2 mps 628 mmHg 47%
    19:00 -7°C° 0 mm 2 mps 628 mmHg 41%
    20:00 -7°C° 0 mm 2 mps 628 mmHg 39%
    21:00 -7°C° 0 mm 2 mps 628 mmHg 37%
    22:00 -7°C° 0 mm 2 mps 628 mmHg 35%
    23:00 -6°C° 0 mm 2 mps 628 mmHg 34%

    21 January, Tuesday

    Time Temperature Precipitation Wind Pressure Humidity
    00:00 -6°C° 0 mm 2 mps 628 mmHg 33%
    01:00 -6°C° 0 mm 2 mps 628 mmHg 31%
    02:00 -6°C° 0 mm 2 mps 628 mmHg 31%
    03:00 -6°C° 0 mm 2 mps 628 mmHg 30%
    04:00 -6°C° 0 mm 2 mps 627 mmHg 29%
    05:00 -6°C° 0 mm 2 mps 627 mmHg 29%
    06:00 -6°C° 0 mm 2 mps 627 mmHg 28%
    07:00 -6°C° 0 mm 2 mps 627 mmHg 28%
    08:00 -4°C° 0 mm 2 mps 628 mmHg 32%
    09:00 -3°C° 0 mm 2 mps 628 mmHg 36%
    10:00 -1°C° 0 mm 2 mps 629 mmHg 40%
    11:00 +1°C° 0 mm 2 mps 629 mmHg 45%
    12:00 +2°C° 0 mm 2 mps 629 mmHg 50%
    13:00 +3°C° 0 mm 2 mps 629 mmHg 55%
    14:00 +2°C° 0 mm 2 mps 628 mmHg 51%
    15:00 +1°C° 0 mm 2 mps 627 mmHg 46%
    16:00 -1°C° 0 mm 2 mps 627 mmHg 42%
    17:00 -2°C° 0 mm 2 mps 626 mmHg 38%
    18:00 -3°C° 0 mm 2 mps 626 mmHg 34%
    19:00 -4°C° 0 mm 2 mps 626 mmHg 30%
    20:00 -4°C° 0 mm 2 mps 626 mmHg 29%
    21:00 -4°C° 0 mm 2 mps 626 mmHg 28%
    22:00 -2°C° 0 mm 1 mps 626 mmHg 27%
    23:00 -2°C° 0 mm 1 mps 625 mmHg 26%

    22 January, Wednesday

    Time Temperature Precipitation Wind Pressure Humidity
    00:00 -2°C° 0 mm 1 mps 625 mmHg 26%
    01:00 -2°C° 0 mm 1 mps 625 mmHg 25%
    02:00 -2°C° 0 mm 1 mps 625 mmHg 24%
    03:00 -2°C° 0 mm 1 mps 625 mmHg 24%
    04:00 -2°C° 0 mm 1 mps 624 mmHg 23%
    05:00 -2°C° 0 mm 1 mps 624 mmHg 23%
    06:00 -2°C° 0 mm 1 mps 624 mmHg 23%
    07:00 -2°C° 0 mm 1 mps 624 mmHg 23%
    08:00 0°C° 0 mm 1 mps 624 mmHg 27%
    09:00 +1°C° 0 mm 1 mps 625 mmHg 31%
    10:00 +2°C° 0 mm 0 mps 625 mmHg 35%
    11:00 +2°C° 0 mm 0 mps 625 mmHg 44%
    12:00 +3°C° 0 mm 0 mps 625 mmHg 53%
    13:00 +4°C° 0 mm 0 mps 625 mmHg 62%
    14:00 +3°C° 0 mm 0 mps 624 mmHg 54%
    15:00 +2°C° 0 mm 0 mps 624 mmHg 47%
    16:00 +1°C° 0 mm 0 mps 623 mmHg 40%
    17:00 0°C° 0 mm 0 mps 622 mmHg 37%
    18:00 0°C° 0 mm 1 mps 622 mmHg 34%
    19:00 -1°C° 0 mm 1 mps 622 mmHg 31%
    20:00 -1°C° 0 mm 1 mps 622 mmHg 29%
    21:00 -1°C° 0 mm 1 mps 622 mmHg 27%
    22:00 -1°C° 0 mm 1 mps 622 mmHg 25%
    23:00 -1°C° 0 mm 1 mps 621 mmHg 25%

    23 January, Thursday

    Time Temperature Precipitation Wind Pressure Humidity
    00:00 -1°C° 0 mm 1 mps 621 mmHg 24%
    01:00 -1°C° 0 mm 1 mps 621 mmHg 24%
    02:00 -1°C° 0 mm 1 mps 621 mmHg 25%
    03:00 -1°C° 0 mm 1 mps 621 mmHg 26%
    04:00 -1°C° 0 mm 1 mps 620 mmHg 27%
    05:00 -2°C° 0 mm 1 mps 620 mmHg 27%
    06:00 -2°C° 0 mm 1 mps 620 mmHg 27%
    07:00 -2°C° 0 mm 1 mps 620 mmHg 28%
    08:00 -1°C° 0 mm 1 mps 621 mmHg 32%
    09:00 0°C° 0 mm 1 mps 622 mmHg 37%
    10:00 +2°C° 0 mm 1 mps 622 mmHg 41%
    11:00 +2°C° 0 mm 1 mps 622 mmHg 47%
    12:00 +3°C° 0 mm 1 mps 623 mmHg 53%
    13:00 +3°C° 0 mm 1 mps 623 mmHg 59%
    14:00 +2°C° 0 mm 1 mps 622 mmHg 57%
    15:00 +1°C° 0 mm 1 mps 622 mmHg 56%
    16:00 0°C° 0 mm 1 mps 621 mmHg 54%
    17:00 -1°C° 0 mm 1 mps 621 mmHg 50%
    18:00 -1°C° 0 mm 1 mps 621 mmHg 46%
    19:00 -4°C° 0 mm 2 mps 621 mmHg 43%
    20:00 -2°C° 0 mm 1 mps 621 mmHg 41%
    21:00 -2°C° 0 mm 1 mps 621 mmHg 39%
    22:00 -2°C° 0 mm 1 mps 621 mmHg 38%
    23:00 -2°C° 0 mm 1 mps 621 mmHg 37%
    Show more